CW7986 Weather Reports


Display with metric or nautical units.
time (UTC)temp
F
wind
direction
speed
MPH
gust
MPH
rain 1hr
in
rain 24hr
in
rain mn
in
humidity
%
barometer
mb
20260507153502 84 224 2.0 11.0 0.00 0.00 0.00 75 1015.8
20260507153002 83 243 3.0 10.0 0.00 0.00 0.00 75 1015.8
20260507152502 83 247 3.0 10.0 0.00 0.00 0.00 74 1015.8
20260507152003 84 268 2.0 9.0 0.00 0.00 0.00 75 1015.7
20260507151502 83 265 3.0 9.0 0.00 0.00 0.00 75 1015.7
20260507151003 84 253 2.0 9.0 0.00 0.00 0.00 73 1015.8
20260507150503 84 246 2.0 5.0 0.00 0.00 0.00 74 1015.8
20260507150002 84 217 3.0 9.0 0.00 0.00 0.00 74 1015.7
20260507145524 84 203 3.0 9.0 0.00 0.00 0.00 73 1015.6
20260507145023 84 210 3.0 10.0 0.00 0.00 0.00 75 1015.6
20260507144502 82 240 3.0 10.0 0.00 0.00 0.00 75 1015.7
20260507144002 83 255 2.0 6.0 0.00 0.00 0.00 73 1015.6
20260507143503 84 244 2.0 6.0 0.00 0.00 0.00 75 1015.7
20260507143002 82 246 2.0 6.0 0.00 0.00 0.00 75 1015.6
20260507142503 82 236 2.0 7.0 0.00 0.00 0.00 74 1015.5
20260507142023 83 236 2.0 7.0 0.00 0.00 0.00 75 1015.4
20260507141503 82 223 2.0 9.0 0.00 0.00 0.00 76 1015.5
20260507141002 82 216 2.0 9.0 0.00 0.00 0.00 76 1015.5
20260507140523 82 243 2.0 6.0 0.00 0.00 0.00 76 1015.4
20260507140004 81 207 2.0 8.0 0.00 0.00 0.00 76 1015.4
20260507135502 81 188 3.0 8.0 0.00 0.00 0.00 77 1015.3
20260507135002 80 213 3.0 8.0 0.00 0.00 0.00 77 1015.4
20260507134502 80 252 2.0 6.0 0.00 0.00 0.00 77 1015.3
20260507134002 81 224 1.0 4.0 0.00 0.00 0.00 77 1015.3
20260507133502 81 200 1.0 6.0 0.00 0.00 0.00 77 1015.3
20260507133003 81 186 1.0 6.0 0.00 0.00 0.00 77 1015.3
20260507132502 81 202 1.0 5.0 0.00 0.00 0.00 80 1015.2
20260507132003 80 193 2.0 6.0 0.00 0.00 0.00 80 1015.2
20260507131503 80 207 2.0 6.0 0.00 0.00 0.00 80 1015.1
20260507131023 80 226 2.0 7.0 0.00 0.00 0.00 82 1015.0
20260507130502 79 231 2.0 7.0 0.00 0.00 0.00 82 1015.1
20260507130003 78 246 1.0 5.0 0.00 0.00 0.00 84 1015.0
20260507125502 78 251 1.0 4.0 0.00 0.00 0.00 85 1014.9
20260507125002 77 250 1.0 4.0 0.00 0.00 0.00 87 1014.8
20260507124503 77 214 1.0 4.0 0.00 0.00 0.00 88 1014.8
20260507124002 76 238 1.0 4.0 0.00 0.00 0.00 89 1014.8
20260507123502 75 273 1.0 4.0 0.00 0.00 0.00 90 1014.9
20260507123002 75 245 0.0 3.0 0.00 0.00 0.00 90 1014.9
20260507122502 74 137 1.0 2.0 0.00 0.00 0.00 90 1014.9
20260507122002 73 126 1.0 2.0 0.00 0.00 0.00 90 1014.8
20260507121502 73 126 1.0 3.0 0.00 0.00 0.00 90 1014.8
20260507121002 72 126 1.0 3.0 0.00 0.00 0.00 90 1014.8
20260507120524 72 126 0.0 3.0 0.00 0.00 0.00 90 1014.8
20260507120002 71 126 0.0 2.0 0.00 0.00 0.00 90 1014.8
20260507115502 71 0 0.0 0.0 0.00 0.00 0.00 90 1014.8
20260507115002 71 0 0.0 0.0 0.00 0.00 0.00 90 1014.8
20260507114523 70 0 0.0 0.0 0.00 0.00 0.00 90 1014.8
20260507114004 70 0 0.0 0.0 0.00 0.00 0.00 89 1014.8
20260507113502 69 0 0.0 0.0 0.00 0.00 0.00 89 1014.8
20260507113002 69 0 0.0 0.0 0.00 0.00 0.00 89 1014.8
20260507112502 68 0 0.0 0.0 0.00 0.00 0.00 89 1014.8
20260507112002 68 0 0.0 0.0 0.00 0.00 0.00 89 1014.7
20260507111503 68 126 0.0 1.0 0.00 0.00 0.00 89 1014.7
20260507111002 68 126 0.0 1.0 0.00 0.00 0.00 89 1014.7
20260507110502 68 0 0.0 0.0 0.00 0.00 0.00 89 1014.6
20260507110002 68 0 0.0 0.0 0.00 0.00 0.00 89 1014.5
20260507105502 68 0 0.0 0.0 0.00 0.00 0.00 89 1014.6
20260507105002 67 0 0.0 0.0 0.00 0.00 0.00 89 1014.5
20260507104502 67 0 0.0 0.0 0.00 0.00 0.00 89 1014.3
20260507104024 67 0 0.0 0.0 0.00 0.00 0.00 89 1014.3
20260507103502 67 0 0.0 0.0 0.00 0.00 0.00 89 1014.3
20260507103023 68 0 0.0 0.0 0.00 0.00 0.00 89 1014.3
20260507102502 68 0 0.0 0.0 0.00 0.00 0.00 89 1014.3
20260507102002 68 0 0.0 0.0 0.00 0.00 0.00 89 1014.2
20260507101502 68 0 0.0 0.0 0.00 0.00 0.00 89 1014.0
20260507101002 68 0 0.0 0.0 0.00 0.00 0.00 88 1014.0
20260507100502 68 0 0.0 0.0 0.00 0.00 0.00 88 1013.8
20260507100002 68 0 0.0 0.0 0.00 0.00 0.00 88 1013.8
20260507095502 68 0 0.0 0.0 0.00 0.00 0.00 89 1013.9
20260507095024 68 0 0.0 0.0 0.00 0.00 0.00 89 1013.9
20260507094502 68 0 0.0 0.0 0.00 0.00 0.00 88 1013.9
20260507094002 69 0 0.0 0.0 0.00 0.00 0.00 88 1013.9
20260507093502 69 0 0.0 0.0 0.00 0.00 0.00 88 1013.8
20260507093002 69 0 0.0 0.0 0.00 0.00 0.00 89 1013.8
20260507092502 69 0 0.0 0.0 0.00 0.00 0.00 89 1013.9
20260507092002 69 0 0.0 0.0 0.00 0.00 0.00 89 1013.8
20260507091502 69 0 0.0 0.0 0.00 0.00 0.00 89 1013.7
20260507091003 69 0 0.0 0.0 0.00 0.00 0.00 89 1013.7
20260507090503 69 0 0.0 0.0 0.00 0.00 0.00 89 1013.7
20260507090002 69 0 0.0 0.0 0.00 0.00 0.00 89 1013.7
20260507085502 69 0 0.0 0.0 0.00 0.00 0.00 89 1013.6
20260507085002 69 0 0.0 0.0 0.00 0.00 0.00 88 1013.5
20260507084502 69 0 0.0 0.0 0.00 0.00 0.00 88 1013.4
20260507084002 70 0 0.0 0.0 0.00 0.00 0.00 88 1013.4
20260507083502 70 0 0.0 0.0 0.00 0.00 0.00 89 1013.2
20260507083002 70 0 0.0 0.0 0.00 0.00 0.00 89 1013.3
20260507082502 70 0 0.0 0.0 0.00 0.00 0.00 89 1013.3
20260507082002 70 0 0.0 0.0 0.00 0.00 0.00 89 1013.4
20260507081502 70 0 0.0 0.0 0.00 0.00 0.00 88 1013.4
20260507081023 70 0 0.0 0.0 0.00 0.00 0.00 88 1013.4
20260507080502 70 0 0.0 0.0 0.00 0.00 0.00 88 1013.3
20260507080003 70 0 0.0 0.0 0.00 0.00 0.00 89 1013.3
20260507075503 70 0 0.0 0.0 0.00 0.00 0.00 89 1013.2
20260507075002 70 0 0.0 0.0 0.00 0.00 0.00 89 1013.2
20260507074503 70 0 0.0 0.0 0.00 0.00 0.00 88 1013.1
20260507074003 71 126 0.0 2.0 0.00 0.00 0.00 88 1013.2
20260507073503 71 126 0.0 2.0 0.00 0.00 0.00 88 1013.1
20260507073002 71 0 0.0 0.0 0.00 0.00 0.00 88 1013.2
20260507072502 71 0 0.0 0.0 0.00 0.00 0.00 88 1013.2
20260507072002 71 0 0.0 0.0 0.00 0.00 0.00 88 1013.2
20260507071502 71 0 0.0 0.0 0.00 0.00 0.00 88 1013.2
20260507071002 71 0 0.0 0.0 0.00 0.00 0.00 88 1013.3
20260507070523 71 43 0.0 1.0 0.00 0.00 0.00 88 1013.3
20260507070004 71 43 0.0 1.0 0.00 0.00 0.00 88 1013.3
20260507065503 71 43 0.0 2.0 0.00 0.00 0.00 88 1013.5
20260507065002 71 43 0.0 2.0 0.00 0.00 0.00 88 1013.5
20260507064502 72 43 0.0 2.0 0.00 0.00 0.00 88 1013.5
20260507064023 72 43 0.0 2.0 0.00 0.00 0.00 88 1013.7
20260507063502 72 51 1.0 3.0 0.00 0.00 0.00 88 1013.7
20260507063003 72 61 1.0 3.0 0.00 0.00 0.00 88 1013.7
20260507062502 72 66 1.0 3.0 0.00 0.00 0.00 88 1013.8
20260507062002 72 73 2.0 3.0 0.00 0.00 0.00 88 1013.9
20260507061503 72 82 1.0 3.0 0.00 0.00 0.00 88 1014.2
20260507061023 72 82 1.0 3.0 0.00 0.00 0.00 88 1014.2
20260507060502 72 83 0.0 3.0 0.00 0.00 0.00 88 1014.2
20260507060002 73 88 0.0 3.0 0.00 0.00 0.00 88 1014.3
20260507055502 73 101 0.0 2.0 0.00 0.00 0.00 88 1014.3
20260507055002 73 101 1.0 2.0 0.00 0.00 0.00 88 1014.2
20260507054503 73 101 0.0 2.0 0.00 0.00 0.00 88 1014.3
20260507054023 73 94 0.0 3.0 0.00 0.00 0.00 88 1014.3
20260507053502 73 82 1.0 3.0 0.00 0.00 0.00 88 1014.5
20260507053003 73 78 1.0 3.0 0.00 0.00 0.00 88 1014.8
20260507052523 73 77 1.0 3.0 0.00 0.00 0.00 88 1014.8
20260507052002 74 58 1.0 3.0 0.00 0.00 0.00 88 1014.8
20260507051502 74 38 1.0 2.0 0.00 0.00 0.00 87 1014.8
20260507051002 74 38 1.0 2.0 0.00 0.00 0.00 87 1014.8
20260507050503 74 38 0.0 2.0 0.00 0.00 0.00 87 1014.9
20260507050002 74 38 0.0 1.0 0.00 0.00 0.00 87 1014.8
20260507045502 74 38 0.0 1.0 0.00 0.00 0.00 87 1014.8
20260507045002 74 34 0.0 1.0 0.00 0.00 0.00 87 1014.8
20260507044502 74 28 0.0 1.0 0.00 0.00 0.00 87 1014.9
20260507044002 74 346 0.0 1.0 0.00 0.00 0.00 87 1015.1
20260507043502 74 346 0.0 1.0 0.00 0.00 0.00 87 1014.9
20260507043003 74 346 0.0 1.0 0.00 0.00 0.00 87 1014.8
20260507042503 74 0 0.0 0.0 0.00 0.00 0.00 87 1014.8
20260507042002 74 0 0.0 0.0 0.00 0.00 0.00 87 1014.8
20260507041503 74 0 0.0 0.0 0.00 0.00 0.00 87 1014.8
20260507041003 74 0 0.0 0.0 0.00 0.00 0.00 87 1014.8
20260507040502 74 0 0.0 0.0 0.00 0.00 0.00 86 1014.8
20260507040002 74 0 0.0 0.0 0.00 0.00 0.00 86 1014.8
20260507035503 74 0 0.0 0.0 0.00 0.00 0.00 86 1014.8
20260507035002 74 0 0.0 0.0 0.00 0.00 0.00 86 1014.8
20260507034502 75 0 0.0 0.0 0.00 0.00 0.00 86 1014.7
20260507034002 75 0 0.0 0.0 0.00 0.00 0.00 86 1014.6
20260507033524 75 0 0.0 0.0 0.00 0.00 0.00 86 1014.7
20260507033002 75 0 0.0 0.0 0.00 0.00 0.00 86 1014.7
20260507032502 75 0 0.0 0.0 0.00 0.00 0.00 86 1014.7
20260507032002 75 346 0.0 1.0 0.00 0.00 0.00 86 1014.6
20260507031523 75 346 0.0 1.0 0.00 0.00 0.00 86 1014.4
20260507031002 75 0 0.0 0.0 0.00 0.00 0.00 86 1014.5
20260507030503 75 0 0.0 0.0 0.00 0.00 0.00 86 1014.5
20260507030002 75 0 0.0 0.0 0.00 0.00 0.00 86 1014.5
20260507025502 76 346 0.0 1.0 0.00 0.00 0.00 86 1014.5
20260507025002 76 346 0.0 1.0 0.00 0.00 0.00 86 1014.5
20260507024502 76 346 0.0 1.0 0.00 0.00 0.00 86 1014.6
20260507024002 76 0 0.0 0.0 0.00 0.00 0.00 86 1014.7
20260507023502 76 0 0.0 0.0 0.00 0.00 0.00 86 1014.6
20260507023002 76 0 0.0 0.0 0.00 0.00 0.00 86 1014.6
20260507022524 76 346 0.0 2.0 0.00 0.00 0.00 86 1014.5
20260507022002 76 346 0.0 2.0 0.00 0.00 0.00 86 1014.4
20260507021502 76 346 0.0 2.0 0.00 0.00 0.00 86 1014.6
20260507021003 76 346 1.0 2.0 0.00 0.00 0.00 86 1014.4
20260507020502 76 319 1.0 3.0 0.00 0.00 0.00 86 1014.5
20260507020002 76 302 1.0 3.0 0.00 0.00 0.00 86 1014.4
20260507015502 76 304 2.0 4.0 0.00 0.00 0.00 86 1014.4
20260507015023 76 300 2.0 4.0 0.00 0.00 0.00 86 1014.4
20260507014524 76 296 2.0 3.0 0.00 0.00 0.00 86 1014.4
20260507014002 77 292 2.0 6.0 0.00 0.00 0.00 86 1014.3
20260507013502 76 291 2.0 6.0 0.00 0.00 0.00 86 1014.3
20260507013002 77 289 2.0 5.0 0.00 0.00 0.00 86 1014.3
20260507012502 77 285 2.0 5.0 0.00 0.00 0.00 85 1014.3
20260507012002 77 283 3.0 5.0 0.00 0.00 0.00 85 1014.3
20260507011502 77 284 3.0 5.0 0.00 0.00 0.00 85 1014.3
20260507010502 77 279 3.0 5.0 0.00 0.00 0.00 85 1014.3
20260507010002 77 276 3.0 5.0 0.00 0.00 0.00 85 1014.3
20260507005502 77 275 3.0 5.0 0.00 0.00 0.00 85 1014.3
20260507005003 77 274 4.0 6.0 0.00 0.00 0.00 85 1014.3
20260507004502 77 271 4.0 6.0 0.00 0.00 0.00 84 1014.3
20260507004002 77 271 4.0 6.0 0.00 0.00 0.00 84 1014.4
20260507003523 77 272 4.0 6.0 0.00 0.00 0.00 84 1014.4
20260507003023 77 276 4.0 6.0 0.00 0.00 0.00 84 1014.3
20260507002502 77 280 3.0 6.0 0.00 0.00 0.00 83 1014.3
20260507002002 77 277 3.0 5.0 0.00 0.00 0.00 83 1014.3
20260507001502 77 273 4.0 7.0 0.00 0.00 0.00 83 1014.3
20260507001023 77 271 5.0 7.0 0.00 0.00 0.00 83 1014.3
20260507000502 78 273 4.0 7.0 0.00 0.00 0.00 83 1014.3
20260507000023 78 276 4.0 6.0 0.00 0.00 0.00 83 1014.3
20260506235502 78 273 4.0 7.0 0.00 0.00 0.00 82 1014.2
20260506235002 78 272 5.0 7.0 0.00 0.00 0.00 82 1014.3
20260506234502 78 272 4.0 7.0 0.00 0.00 0.00 82 1014.3
20260506234002 79 270 3.0 6.0 0.00 0.00 0.00 82 1014.2
20260506233502 79 267 3.0 7.0 0.00 0.00 0.00 81 1014.2
20260506233002 79 265 3.0 7.0 0.00 0.00 0.00 81 1014.3
20260506232503 79 269 4.0 7.0 0.00 0.00 0.00 81 1014.3
20260506232003 79 274 4.0 7.0 0.00 0.00 0.00 81 1014.3
20260506231502 79 274 4.0 7.0 0.00 0.00 0.00 81 1014.3
20260506231023 79 275 5.0 8.0 0.00 0.00 0.00 81 1014.3
20260506230502 79 269 4.0 8.0 0.00 0.00 0.00 80 1014.3
20260506230023 80 269 4.0 10.0 0.00 0.00 0.00 80 1014.3
20260506225502 80 277 5.0 10.0 0.00 0.00 0.00 80 1014.3
20260506225023 80 278 4.0 8.0 0.00 0.00 0.00 79 1014.3
20260506224502 80 272 4.0 10.0 0.00 0.00 0.00 79 1014.3
20260506224002 80 272 4.0 10.0 0.00 0.00 0.00 79 1014.3
20260506223502 81 271 4.0 9.0 0.00 0.00 0.00 79 1014.3
20260506223002 80 275 5.0 10.0 0.00 0.00 0.00 79 1014.3
20260506222502 81 275 4.0 10.0 0.00 0.00 0.00 79 1014.3
20260506222003 81 272 4.0 10.0 0.00 0.00 0.00 79 1014.3
20260506221502 81 270 4.0 10.0 0.00 0.00 0.00 79 1014.3
20260506221002 81 269 4.0 10.0 0.00 0.00 0.00 79 1014.3
20260506220502 81 272 6.0 10.0 0.00 0.00 0.00 79 1014.2
20260506220003 81 272 6.0 10.0 0.00 0.00 0.00 78 1014.2
20260506215502 81 271 5.0 10.0 0.00 0.00 0.00 77 1014.2
20260506215002 82 272 5.0 10.0 0.00 0.00 0.00 77 1014.3
20260506214502 82 267 3.0 9.0 0.00 0.00 0.00 77 1014.3
20260506214002 82 257 3.0 5.0 0.00 0.00 0.00 77 1014.3
20260506213524 82 267 5.0 10.0 0.00 0.00 0.00 77 1014.3
20260506213002 81 275 5.0 10.0 0.00 0.00 0.00 77 1014.3
20260506212502 82 272 4.0 9.0 0.00 0.00 0.00 78 1014.3
20260506212002 81 268 5.0 12.0 0.00 0.00 0.00 77 1014.3
20260506211502 82 271 5.0 12.0 0.00 0.00 0.00 78 1014.3
20260506211024 81 273 6.0 11.0 0.00 0.00 0.00 79 1014.3
20260506210502 81 272 6.0 11.0 0.00 0.00 0.00 77 1014.3
20260506210002 82 272 6.0 12.0 0.00 0.00 0.00 77 1014.3
20260506205505 82 273 6.0 12.0 0.00 0.00 0.00 77 1014.3
20260506205002 83 270 5.0 12.0 0.00 0.00 0.00 77 1014.3
20260506204523 82 269 5.0 12.0 0.00 0.00 0.00 75 1014.2
20260506204002 84 270 3.0 10.0 0.00 0.00 0.00 74 1014.3
20260506203502 84 261 3.0 7.0 0.00 0.00 0.00 74 1014.3
20260506203002 84 251 2.0 7.0 0.00 0.00 0.00 74 1014.2
20260506202502 84 262 3.0 10.0 0.00 0.00 0.00 74 1014.3
20260506202004 84 258 3.0 10.0 0.00 0.00 0.00 73 1014.3
20260506201523 85 244 3.0 12.0 0.00 0.00 0.00 73 1014.3
20260506201023 84 234 3.0 12.0 0.00 0.00 0.00 73 1014.3
20260506200502 84 251 4.0 13.0 0.00 0.00 0.00 73 1014.3
20260506200003 84 259 4.0 13.0 0.00 0.00 0.00 75 1014.3
20260506195502 84 242 3.0 9.0 0.00 0.00 0.00 71 1014.3
20260506195002 86 245 3.0 9.0 0.00 0.00 0.00 72 1014.3
20260506194502 85 258 3.0 9.0 0.00 0.00 0.00 71 1014.4
20260506194002 85 264 3.0 7.0 0.00 0.00 0.00 71 1014.5
20260506193502 86 239 2.0 7.0 0.00 0.00 0.00 71 1014.6
20260506193002 86 198 2.0 6.0 0.00 0.00 0.00 71 1014.7
20260506192503 86 226 2.0 11.0 0.00 0.00 0.00 70 1014.8
20260506192023 86 237 3.0 11.0 0.00 0.00 0.00 71 1014.8
20260506191502 86 247 3.0 10.0 0.00 0.00 0.00 70 1014.8
20260506191002 86 250 2.0 10.0 0.00 0.00 0.00 72 1014.8
20260506190502 85 234 3.0 10.0 0.00 0.00 0.00 72 1014.8
20260506190002 85 241 3.0 12.0 0.00 0.00 0.00 72 1014.8
20260506185502 85 244 3.0 12.0 0.00 0.00 0.00 72 1014.8
20260506185002 86 255 3.0 10.0 0.00 0.00 0.00 72 1014.9
20260506184503 85 260 4.0 10.0 0.00 0.00 0.00 73 1015.0
20260506184002 85 255 3.0 7.0 0.00 0.00 0.00 73 1015.2
20260506183503 86 234 2.0 9.0 0.00 0.00 0.00 72 1015.2
20260506183002 86 216 3.0 9.0 0.00 0.00 0.00 72 1015.3
20260506182502 85 244 3.0 7.0 0.00 0.00 0.00 72 1015.3
20260506182025 85 256 3.0 9.0 0.00 0.00 0.00 71 1015.3
20260506181502 86 250 3.0 10.0 0.00 0.00 0.00 72 1015.3
20260506181002 85 255 3.0 12.0 0.00 0.00 0.00 73 1015.3
20260506180503 85 263 3.0 12.0 0.00 0.00 0.00 73 1015.4
20260506180003 85 253 3.0 10.0 0.00 0.00 0.00 73 1015.5
20260506175502 85 255 2.0 9.0 0.00 0.00 0.00 73 1015.5
20260506175002 85 242 3.0 13.0 0.00 0.00 0.00 74 1015.5
20260506174502 84 230 3.0 13.0 0.00 0.00 0.00 73 1015.6
20260506174024 85 259 4.0 9.0 0.00 0.00 0.00 74 1015.5
20260506173502 84 266 4.0 9.0 0.00 0.00 0.00 74 1015.6
20260506173002 85 251 4.0 12.0 0.00 0.00 0.00 74 1015.6
20260506172523 85 250 4.0 12.0 0.00 0.00 0.00 72 1015.5
20260506172023 85 250 3.0 9.0 0.00 0.00 0.00 73 1015.6
20260506171504 85 256 3.0 7.0 0.00 0.00 0.00 72 1015.7
20260506171023 86 241 3.0 7.0 0.00 0.00 0.00 71 1015.7
20260506170503 86 225 3.0 7.0 0.00 0.00 0.00 72 1015.7
20260506170002 85 256 3.0 10.0 0.00 0.00 0.00 72 1015.8
20260506165503 85 256 3.0 13.0 0.00 0.00 0.00 73 1015.8
20260506165002 85 250 3.0 13.0 0.00 0.00 0.00 74 1015.8
20260506164503 84 250 3.0 11.0 0.00 0.00 0.00 72 1015.8
20260506164003 86 218 3.0 11.0 0.00 0.00 0.00 71 1015.8
20260506163502 86 217 3.0 11.0 0.00 0.00 0.00 71 1015.8
20260506163002 86 201 4.0 13.0 0.00 0.00 0.00 70 1015.8
20260506162523 86 192 4.0 13.0 0.00 0.00 0.00 70 1015.8
20260506162003 85 198 3.0 10.0 0.00 0.00 0.00 71 1015.8
20260506161502 85 194 3.0 11.0 0.00 0.00 0.00 71 1015.8
20260506161002 85 202 3.0 11.0 0.00 0.00 0.00 71 1015.8
20260506160503 85 206 3.0 11.0 0.00 0.00 0.00 70 1015.9
20260506160002 85 217 3.0 11.0 0.00 0.00 0.00 71 1015.8
20260506155502 85 229 3.0 9.0 0.00 0.00 0.00 71 1015.9
20260506155002 85 206 3.0 9.0 0.00 0.00 0.00 71 1015.8
20260506154523 84 213 3.0 10.0 0.00 0.00 0.00 71 1015.8
20260506154002 85 214 2.0 10.0 0.00 0.00 0.00 70 1015.8